Showing default

GHGSAT-C8, 56186

Orbit data source: Space-Track

GHGSAT-C8, 56186 is a payload satellite owned by GHG (CA) in SSO that was launched on Sat, 15 Apr 2023 UTC via an FALCON 9 launch vehicle from the Air Force Western Test Range (AFWTR). Payload-class satellites include a variety of spacecraft equipped with specific instruments for various scientific and technological missions. These include communications satellites like Starlink; space stations such as the ISS; scientific satellites like the Hubble; Earth observation satellites from companies like Planet Labs, Umbra, and HawkEye 360; GPS; miniature CubeSats for education and research; and military/defense satellites.

Loading next visibility...
Identifier
56186, 2023-054J
Orbit
SSO
Country
Flag of CACA
Related business
Manufacturer
UTIAS-SFL
Mission
Operational Commercial Earth Obs Sci
Bus & Motor
NEMO-V1, Unknown motor
Mass
15 kg wet, 15 kg dry
Launch date (UTC)
2023-04-15 (3 years ago)
Launch vehicle
FALCON 9
Launch site
Air Force Western Test Range (AFWTR)
Object type
Payload
Rocket body
Debris
Shape & HBR
Box, 1.0 m
Radar Cross Section
0.100 m², Medium (>0.1 m² and < 1m²)

Expand to show TLE details & history
Last TLE update: 11 hours ago

TLE from 11 hours ago
0 GHGSAT-C8
1 56186U 23054J   25310.28477666  .00019086  00000-0  39931-3 0  9999
2 56186  97.3140 211.6192 0007422 135.8464 224.3379 15.45478909143921
Epoch: 2025-11-06T06:50Z
TLE epoch observation values (Epoch: 2025-11-06T06:50:04.703Z)
Latitude
-0°
Longitude
63.35431°
Altitude
436.715 km
Speed
7.648 km/s
True Right ascension
14h 06m 28s
True Declination
0° 00' 00"
Sunlit
Object was in daylight at epoch
Visualization orbit readout
Latitude
Unknown
Longitude
Unknown
Altitude
Unknown
Speed
Unknown
Apparent Right ascension
Unknown
Apparent Declination
Unknown
Sunlit
N/A
Visualization observer readout
Local Sidereal Time
14:13:17
Azimuth
Unknown
Elevation
Unknown
Doppler factor
Unknown
Orbital elements
Apogee altitude
431.95 km
Perigee altitude
421.849 km
Semi-major axis
6,805.036 km
Eccentricity
0.00074
Inclination
97.314°
RAAN
211.6192°
Arg. of periapsis
135.8464°
True anomaly
224.2785°
Mean anomaly
224.3379°
Eccentric anomaly
224.3082°
Mean motion
3.86632 °/min
Orbital period
93.11 mins
BSTAR
0.00039931
Loading maneuver chart data...
Computing Atmospheric mass density...
Loading historical data...
Loading historical data...
Loading historical data...
Loading historical data...
Loading historical data...
Loading historical data...
Loading historical data...

Documentation

Showing up to 5 results
|